Terminal Aerodrome Forecast
Issued by NWS Blacksburg, VA

Current Version | Previous Version | Graphics & Text | Print | Product List | Glossary On
Versions: 1 2 3 4 5 6 7 8 9 10 11 12 13 14 15 16 17 18 19 20 21 22 23 24 25 26 27 28 29 30 31 32 33 34 35 36 37 38 39 40 41 42 43 44 45 46 47 48 49
000
FTUS41 KRNK 292342 AAA
TAFBLF
TAF AMD
KBLF 292342Z 3000/3024 VRB03KT P6SM BKN060
     FM301200 26004KT P6SM VCSH BKN025 OVC040
     FM301700 31008KT P6SM OVC040
     FM302100 31009G19KT P6SM SCT050=

USA.gov is the U.S. government's official web portal to all federal, state and local government web resources and services.